TimeCDT,TemperatureF,Dew PointF,Humidity,Sea Level PressureIn,VisibilityMPH,Wind Direction,Wind SpeedMPH,Gust SpeedMPH,PrecipitationIn,Events,Conditions,WindDirDegrees,DateUTC
12:15 AM,44.6,26.6,49,30.13,10.0,North,-9999.0,-,N/A,,Clear,0,2013-04-04 05:15:00
12:35 AM,44.6,26.6,49,30.13,10.0,North,-9999.0,-,N/A,,Clear,0,2013-04-04 05:35:00
12:55 AM,44.6,26.6,49,30.12,10.0,North,-9999.0,-,N/A,,Clear,0,2013-04-04 05:55:00
1:15 AM,42.8,26.6,53,30.13,10.0,North,-9999.0,-,N/A,,Clear,0,2013-04-04 06:15:00
1:35 AM,42.8,26.6,53,30.13,10.0,North,-9999.0,-,N/A,,Clear,0,2013-04-04 06:35:00
1:55 AM,42.8,26.6,53,30.13,10.0,North,-9999.0,-,N/A,,Clear,0,2013-04-04 06:55:00
2:15 AM,42.8,26.6,53,30.13,10.0,North,-9999.0,-,N/A,,Clear,0,2013-04-04 07:15:00
2:35 AM,42.8,26.6,53,30.13,10.0,North,-9999.0,-,N/A,,Clear,0,2013-04-04 07:35:00
2:55 AM,41.0,26.6,57,30.13,10.0,North,-9999.0,-,N/A,,Clear,0,2013-04-04 07:55:00
3:15 AM,41.0,26.6,57,30.11,10.0,North,-9999.0,-,N/A,,Clear,0,2013-04-04 08:15:00
3:35 AM,41.0,26.6,57,30.11,10.0,North,-9999.0,-,N/A,,Clear,0,2013-04-04 08:35:00
3:55 AM,41.0,26.6,57,30.10,10.0,North,-9999.0,-,N/A,,Clear,0,2013-04-04 08:55:00
4:15 AM,41.0,26.6,57,30.09,10.0,North,-9999.0,-,N/A,,Clear,0,2013-04-04 09:15:00
4:35 AM,41.0,26.6,57,30.09,10.0,North,-9999.0,-,N/A,,Clear,0,2013-04-04 09:35:00
4:55 AM,41.0,26.6,57,30.08,10.0,North,-9999.0,-,N/A,,Clear,0,2013-04-04 09:55:00
5:15 AM,41.0,26.6,57,30.08,10.0,North,-9999.0,-,N/A,,Clear,0,2013-04-04 10:15:00
5:35 AM,41.0,26.6,57,30.08,10.0,North,-9999.0,-,N/A,,Clear,0,2013-04-04 10:35:00
5:55 AM,41.0,26.6,57,30.07,10.0,North,-9999.0,-,N/A,,Partly Cloudy,0,2013-04-04 10:55:00
6:15 AM,41.0,26.6,57,30.08,10.0,North,-9999.0,-,N/A,,Mostly Cloudy,0,2013-04-04 11:15:00
6:35 AM,41.0,26.6,57,30.07,10.0,North,-9999.0,-,N/A,,Mostly Cloudy,0,2013-04-04 11:35:00
6:55 AM,42.8,26.6,53,30.08,10.0,North,-9999.0,-,N/A,,Scattered Clouds,0,2013-04-04 11:55:00
7:15 AM,41.0,26.6,57,30.09,10.0,North,-9999.0,-,N/A,,Scattered Clouds,0,2013-04-04 12:15:00
7:35 AM,42.8,26.6,53,30.10,10.0,North,-9999.0,-,N/A,,Mostly Cloudy,0,2013-04-04 12:35:00
7:55 AM,42.8,26.6,53,30.11,10.0,North,-9999.0,-,N/A,,Overcast,0,2013-04-04 12:55:00
8:15 AM,42.8,26.6,53,30.11,10.0,North,-9999.0,-,N/A,,Overcast,0,2013-04-04 13:15:00
8:35 AM,42.8,28.4,57,30.11,10.0,North,-9999.0,-,N/A,,Overcast,0,2013-04-04 13:35:00
8:55 AM,44.6,28.4,53,30.11,10.0,North,-9999.0,-,N/A,,Overcast,0,2013-04-04 13:55:00
9:15 AM,-9999,-9999,N/A,30.11,10.0,North,-9999.0,-,N/A,,Overcast,0,2013-04-04 14:15:00
9:35 AM,42.8,30.2,61,30.11,10.0,North,-9999.0,-,N/A,,Overcast,0,2013-04-04 14:35:00
9:55 AM,42.8,28.4,57,30.10,10.0,North,-9999.0,-,N/A,,Overcast,0,2013-04-04 14:55:00
10:15 AM,44.6,30.2,57,30.11,10.0,North,-9999.0,-,N/A,,Mostly Cloudy,0,2013-04-04 15:15:00
10:35 AM,-9999,-9999,N/A,30.11,10.0,North,-9999.0,-,N/A,,Partly Cloudy,0,2013-04-04 15:35:00
10:55 AM,-9999,-9999,N/A,-9999,10.0,North,-9999.0,-,N/A,,Clear,0,2013-04-04 15:55:00
11:35 AM,-9999,-9999,N/A,-9999,10.0,North,-9999.0,-,N/A,,Scattered Clouds,0,2013-04-04 16:35:00
11:55 AM,-9999,-9999,N/A,-9999,10.0,North,-9999.0,-,N/A,,Partly Cloudy,0,2013-04-04 16:55:00
12:15 PM,-9999,-9999,N/A,-9999,10.0,North,-9999.0,-,N/A,,Clear,0,2013-04-04 17:15:00
12:35 PM,-9999,-9999,N/A,-9999,10.0,North,-9999.0,-,N/A,,Clear,0,2013-04-04 17:35:00
12:55 PM,-9999,-9999,N/A,-9999,10.0,North,-9999.0,-,N/A,,Clear,0,2013-04-04 17:55:00
1:15 PM,-9999,-9999,N/A,-9999,10.0,North,-9999.0,-,N/A,,Clear,0,2013-04-04 18:15:00
1:35 PM,-9999,-9999,N/A,-9999,10.0,North,-9999.0,-,N/A,,Clear,0,2013-04-04 18:35:00
1:55 PM,-9999,-9999,N/A,-9999,10.0,North,-9999.0,-,N/A,,Clear,0,2013-04-04 18:55:00
2:15 PM,-9999,-9999,N/A,-9999,10.0,North,-9999.0,-,N/A,,Clear,0,2013-04-04 19:15:00
2:35 PM,-9999,-9999,N/A,-9999,10.0,North,-9999.0,-,N/A,,Clear,0,2013-04-04 19:35:00
2:55 PM,-9999,-9999,N/A,-9999,10.0,North,-9999.0,-,N/A,,Clear,0,2013-04-04 19:55:00
3:15 PM,-9999,-9999,N/A,-9999,10.0,North,-9999.0,-,N/A,,Clear,0,2013-04-04 20:15:00
3:35 PM,-9999,-9999,N/A,-9999,10.0,North,-9999.0,-,N/A,,Clear,0,2013-04-04 20:35:00
3:55 PM,-9999,-9999,N/A,-9999,10.0,North,-9999.0,-,N/A,,Clear,0,2013-04-04 20:55:00
4:15 PM,-9999,-9999,N/A,-9999,10.0,North,-9999.0,-,N/A,,Clear,0,2013-04-04 21:15:00
4:35 PM,-9999,-9999,N/A,-9999,10.0,North,-9999.0,-,N/A,,Clear,0,2013-04-04 21:35:00
4:55 PM,-9999,-9999,N/A,-9999,10.0,North,-9999.0,-,N/A,,Clear,0,2013-04-04 21:55:00
5:15 PM,-9999,-9999,N/A,-9999,10.0,North,-9999.0,-,N/A,,Clear,0,2013-04-04 22:15:00
5:35 PM,-9999,-9999,N/A,-9999,10.0,North,-9999.0,-,N/A,,Clear,0,2013-04-04 22:35:00
5:55 PM,-9999,-9999,N/A,-9999,10.0,North,-9999.0,-,N/A,,Clear,0,2013-04-04 22:55:00
6:15 PM,-9999,-9999,N/A,-9999,10.0,North,-9999.0,-,N/A,,Clear,0,2013-04-04 23:15:00
6:35 PM,-9999,-9999,N/A,-9999,10.0,North,-9999.0,-,N/A,,Clear,0,2013-04-04 23:35:00
6:55 PM,-9999,-9999,N/A,-9999,10.0,North,-9999.0,-,N/A,,Clear,0,2013-04-04 23:55:00
7:15 PM,-9999,-9999,N/A,-9999,10.0,North,-9999.0,-,N/A,,Clear,0,2013-04-05 00:15:00
7:35 PM,-9999,-9999,N/A,-9999,10.0,North,-9999.0,-,N/A,,Clear,0,2013-04-05 00:35:00
7:55 PM,-9999,-9999,N/A,-9999,10.0,North,-9999.0,-,N/A,,Clear,0,2013-04-05 00:55:00
8:15 PM,-9999,-9999,N/A,-9999,10.0,North,-9999.0,-,N/A,,Clear,0,2013-04-05 01:15:00
8:35 PM,-9999,-9999,N/A,-9999,10.0,North,-9999.0,-,N/A,,Clear,0,2013-04-05 01:35:00
8:55 PM,44.6,28.4,53,30.16,10.0,North,-9999.0,-,N/A,,Clear,0,2013-04-05 01:55:00
9:15 PM,42.8,28.4,57,30.17,10.0,North,-9999.0,-,N/A,,Clear,0,2013-04-05 02:15:00
9:35 PM,42.8,26.6,53,30.18,10.0,North,-9999.0,-,N/A,,Clear,0,2013-04-05 02:35:00
9:55 PM,41.0,26.6,57,30.18,10.0,North,-9999.0,-,N/A,,Clear,0,2013-04-05 02:55:00
10:15 PM,39.2,26.6,61,30.18,10.0,North,-9999.0,-,N/A,,Clear,0,2013-04-05 03:15:00
10:35 PM,39.2,26.6,61,30.18,10.0,North,-9999.0,-,N/A,,Clear,0,2013-04-05 03:35:00
10:55 PM,37.4,24.8,60,30.19,10.0,North,-9999.0,-,N/A,,Clear,0,2013-04-05 03:55:00
11:15 PM,37.4,24.8,60,30.19,10.0,North,-9999.0,-,N/A,,Clear,0,2013-04-05 04:15:00
11:35 PM,37.4,24.8,60,30.19,10.0,North,-9999.0,-,N/A,,Clear,0,2013-04-05 04:35:00
11:55 PM,35.6,24.8,65,30.20,10.0,North,-9999.0,-,N/A,,Clear,0,2013-04-05 04:55:00